Back to catalog

STARLINK-5947

AliveCommunicationsVLEO
NORAD 55989·PAYLOAD·🇺🇸 United States

Launched Mar 24, 2023 from Cape Canaveral Space Force Station

Loading…

Next Passes (next 24 hours)

TLE

FreshSource: CelesTrak SupGP

Epoch: Sep 15, 2026, 02:36 UTC

1 55989C 23042D   26258.10881944 -.00023415  00000+0 -84794-3 0  2584
2 55989  43.0040  69.8292 0002015 275.5486 282.9862 15.27595449    19

Track STARLINK-5947 in real time with AllMySat

Download on the App Store